FW0071 Weather Reports


Display with metric or nautical units.
time (UTC)temp
F
wind
direction
speed
MPH
gust
MPH
rain 1hr
in
rain 24hr
in
rain mn
in
humidity
%
barometer
mb
20260502123037 65 104 0.0 5.0 0.00 0.23 0.23 70 1018.9
20260502121538 65 53 0.0 6.0 0.00 0.23 0.23 70 1019.1
20260502114530 64 100 0.0 8.0 0.00 0.23 0.23 72 1019.3
20260502113026 64 167 0.0 8.0 0.00 0.23 0.23 74 1019.6
20260502111525 64 103 0.0 4.0 0.00 0.23 0.23 75 1019.9
20260502110021 63 160 0.0 5.0 0.00 0.23 0.23 76 1020.0
20260502104518 61 141 0.0 6.0 0.00 0.23 0.23 83 1020.1
20260502103020 60 118 0.0 6.0 0.00 0.23 0.23 86 1020.4
20260502101513 59 138 0.0 6.0 0.00 0.23 0.23 89 1020.7
20260502091509 57 113 0.0 2.0 0.00 0.23 0.23 93 1020.5
20260502071501 57 106 0.0 4.0 0.10 0.13 0.13 88 1020.6
20260502070101 58 169 0.0 8.0 0.02 0.03 0.03 87 1020.6
20260502064603 57 92 0.0 9.0 0.03 0.03 0.03 88 1020.4
20260502063059 57 139 0.0 7.0 0.03 0.03 0.03 88 1020.4
20260502061557 57 99 0.0 7.0 0.03 0.03 0.03 87 1020.4
20260502060056 58 99 0.0 6.0 0.02 0.02 0.02 85 1020.4
20260502054558 58 124 0.0 6.0 0.00 0.00 0.00 83 1020.3
20260502053054 58 120 1.0 10.0 0.00 0.00 0.00 83 1020.1
20260502051554 58 146 0.0 8.0 0.00 0.00 0.00 83 1020.2
20260502050052 58 101 0.0 6.0 0.00 0.00 0.00 82 1020.1
20260502044552 59 107 0.0 7.0 0.00 0.00 0.00 80 1020.0
20260502043053 59 172 0.0 4.0 0.00 0.00 0.00 80 1019.9
20260502041549 59 113 0.0 7.0 0.00 0.00 0.00 81 1020.0
20260502040058 59 121 0.0 0.0 0.00 0.00 0.00 81 1020.1
20260502034547 59 103 0.0 2.0 0.00 0.00 0.00 80 1020.2
20260502033048 59 107 0.0 0.0 0.00 0.00 0.00 80 1020.3
20260502031549 59 115 0.0 0.0 0.00 0.00 0.00 81 1020.3
20260502030045 59 137 0.0 4.0 0.00 0.00 0.00 81 1020.4
20260502024545 59 104 0.0 0.0 0.00 0.00 0.00 81 1020.3
20260502023051 59 130 0.0 4.0 0.00 0.00 0.00 81 1020.3
20260502021544 59 126 0.0 0.0 0.00 0.00 0.00 81 1020.5
20260502020056 58 113 0.0 4.0 0.00 0.00 0.00 81 1020.6
20260502014549 58 118 0.0 6.0 0.00 0.00 0.00 80 1020.5
20260502013040 58 134 0.0 5.0 0.00 0.00 0.00 80 1020.6
20260502011539 58 105 0.0 4.0 0.00 0.00 0.00 80 1020.7
20260502010036 57 101 0.0 4.0 0.00 0.00 0.00 80 1020.9
20260502004536 58 107 0.0 4.0 0.00 0.00 0.00 79 1021.0
20260502003035 58 121 0.0 6.0 0.00 0.00 0.00 79 1021.0
20260502001554 58 113 0.0 0.0 0.00 0.00 0.00 79 1021.2
20260502000034 58 57 0.0 4.0 0.00 0.00 0.00 79 1021.2
20260501234529 58 119 0.0 8.0 0.00 0.00 0.00 80 1021.1
20260501233028 58 110 0.0 8.0 0.00 0.00 0.00 80 1021.5
20260501231526 58 155 0.0 0.0 0.00 0.00 0.00 80 1021.7
20260501230024 58 111 0.0 0.0 0.00 0.00 0.00 79 1022.0
20260501224522 59 138 0.0 1.0 0.00 0.00 0.00 77 1021.9
20260501223022 59 119 0.0 3.0 0.00 0.00 0.00 76 1021.8
20260501221518 59 135 0.0 9.0 0.00 0.00 0.00 74 1021.7
20260501220013 59 117 0.0 2.0 0.00 0.00 0.00 74 1021.8
20260501214514 60 132 0.0 0.0 0.00 0.00 0.00 74 1021.8
20260501213012 60 146 0.0 0.0 0.00 0.00 0.00 73 1021.7
20260501211511 60 195 0.0 0.0 0.00 0.00 0.00 73 1021.6
20260501210024 61 203 0.0 0.0 0.00 0.00 0.00 72 1021.6
20260501204510 61 203 0.0 0.0 0.00 0.00 0.00 73 1021.6
20260501203008 61 203 0.0 0.0 0.00 0.00 0.00 72 1021.5
20260501201506 62 203 0.0 0.0 0.00 0.00 0.00 71 1021.2
20260501200005 62 203 0.0 0.0 0.00 0.00 0.00 71 1020.9
20260501194504 63 203 0.0 0.0 0.00 0.00 0.00 70 1020.8
20260501193100 63 215 0.0 0.0 0.00 0.00 0.00 70 1020.5
20260501191559 63 186 0.0 0.0 0.00 0.00 0.00 69 1020.3
20260501184556 65 221 0.0 0.0 0.00 0.00 0.00 67 1020.1
20260501183054 66 187 0.0 0.0 0.00 0.00 0.00 64 1019.9
20260501181553 67 153 0.0 3.0 0.00 0.00 0.00 60 1019.8
20260501180052 68 187 0.0 3.0 0.00 0.00 0.00 59 1019.5
20260501174552 68 164 0.0 2.0 0.00 0.00 0.00 58 1019.4
20260501173101 69 192 0.0 5.0 0.00 0.00 0.00 57 1019.2
20260501171550 70 218 0.0 5.0 0.00 0.00 0.00 57 1019.1
20260501170052 71 178 0.0 5.0 0.00 0.00 0.00 56 1018.9
20260501164557 71 173 0.0 0.0 0.00 0.00 0.00 55 1018.7
20260501163049 72 172 0.0 5.0 0.00 0.00 0.00 54 1018.7
20260501161600 72 185 0.0 5.0 0.00 0.00 0.00 53 1018.6
20260501160050 72 141 0.0 7.0 0.00 0.00 0.00 52 1018.6
20260501154551 73 174 0.0 7.0 0.00 0.00 0.00 54 1018.6
20260501153053 74 198 0.0 8.0 0.00 0.00 0.00 53 1018.5
20260501151554 73 145 0.0 3.0 0.00 0.00 0.00 52 1018.4
20260501150045 73 105 0.0 3.0 0.00 0.00 0.00 50 1018.3